Satellite-Ground Cal/Val Site Overpasses Predictions

Prediction of Satellite NPP Overpassing Cal/Val Site: Antarctic Dome C

Ground Cal/Val Site Location: Latitude: -75.10, Longitude: 123.35; Satellite-Ground Site NADIR distance within 100 km.

Table of predicted overpasses for the next 14.0 days since TLE Epoch: 12/3/2022
Interval Starting Time Ending Time Minimum Distance Time Minimum Distance (km)
1 12/03/2022 14:42:59 12/03/2022 14:43:24 12/03/2022 14:43:12 50.96
2 12/04/2022 07:44:41 12/04/2022 07:45:03 12/04/2022 07:44:52 66.52
3 12/05/2022 07:25:51 12/05/2022 07:26:18 12/05/2022 07:26:05 41.47
4 12/07/2022 15:08:20 12/07/2022 15:08:28 12/07/2022 15:08:24 96.16
5 12/08/2022 14:49:22 12/08/2022 14:49:51 12/08/2022 14:49:36 14.84
6 12/10/2022 07:32:13 12/10/2022 07:32:43 12/10/2022 07:32:28 4.26
7 12/13/2022 14:55:46 12/13/2022 14:56:15 12/13/2022 14:56:00 22.09
8 12/14/2022 14:37:05 12/14/2022 14:37:20 12/14/2022 14:37:12 84.79
9 12/15/2022 07:38:38 12/15/2022 07:39:06 12/15/2022 07:38:52 32.27
